Weather in Yasnaya Polyana

Russia / Penza Oblast     53°02′31″N   46°39′13″E
temp.,
°C
wind,
m/s
gust,
m/s
humid.,
%
clouds,
%
prec.,
mm/h
press.,
hPa
HPBL,
m
7 march, sun
sun700:00−13w119424 0.0 101321
03:00−13wsw119747 0.1 101320
06:00−11wnw2397100 0.6 101387
09:00−10w359491 0.6 1014254
12:00−7wsw588428 0.0 1013879
15:00−7sw6108662 0.1 1010852
18:00−7ssw71491100 0.1 1007979
21:00−5sw81692100 1.4 10041210
8 march, mon
mon800:00−5sw81693100 1.3 10001170
03:00−4sw91792100 2.1 9981194
06:00−5w71389100 0.5 9991047
09:00−6w7137968 0.6 10021189
12:00−4wsw7117631 0.0 10031387
15:00−3sw698163 0.1 10031174
18:00−6ssw4119397 0.1 1003400
21:00−7wsw4119493 0.1 1004386
9 march, tue
tue900:00−9w4119596 0.1 1005373
03:00−13w399795 0.1 1007196
06:00−16w239881 0.0 100952
09:00−12wnw359376 0.0 1011239
12:00−8wnw358688 0.0 1011514
15:00−7nw358493 0.1 1012764
18:00−11nw3696100 0.1 1012162
21:00−14nw3696100 0.1 1014184
10 march, wed
wed1000:00−16nw259798 0.1 1015126
03:00−18nw379786 0.1 1016174
06:00−21nw389955 0.0 1017190
09:00−18nnw479478 0.1 1019321
12:00−15nw4685100 0.0 1020736
15:00−15nw5785100 0.1 1021899
18:00−19nw4993100 0.1 1022534
21:00−24nnw389798 0.1 1025210
11 march, thu
thu1100:00−27nw369816 0.0 1026119
03:00−27nw35988 0.0 1027103
06:00−27wnw35960 0.0 1028104
09:00−21wnw48920 0.0 1028267
12:00−15wnw58840 0.0 1028454
15:00−12wnw59840 0.0 1028534
18:00−15wnw410910 0.0 1028265
21:00−18wnw48940 0.0 1030173